Location: Balmoral
(33.0667°S, 151.5833°E)
Time: 03:19:09
(UTC+00:00)

Cosmos 1607 - Pass Details

Date: 18 September 2020
Orbit: 909 x 993 km, 65.0° (Epoch: 23 October)

Event Time Altitude Azimuth Distance (km) Brightness Sun altitude
Rises 18:43:29 0° 208° (SSW) 3,571 6.7 -14.2°
Reaches altitude 10° 18:46:01 10° 208° (SSW) 2,620 6.1 -13.7°
Maximum altitude 18:52:07 88° 118° (ESE) 923 3.9 -12.4°
Drops below altitude 10° 18:58:11 10° 28° (NNE) 2,604 6.5 -11.1°
Sets 19:00:42 0° 27° (NNE) 3,548 7.2 -10.6°
